[[{"header":{"parameterUnit":"m.s-1","parameterCategory":1,"la1":30.2991,"la2":30.254,"lo1":-89.0895,"lo2":-89.0444,"dy":0.0017,"dx":0.0017,"nx":28,"ny":28,"refTime":"2023-10-27T09:00:00:Z","depth":0,"parameterNumber":2,"parameterNumberName":"U-component_of_WINDS"},"data":[0,0,0,0,0,0,0,0,0,0,0,0,0,0,0,0,0,0,0,0,0,0,0,0,0,0,0,0,0,0,0,0,0,0,0,0,0,0,0,0,0,0,0,0,0,0,0,0,0,0,0,0,0,0,0,0,0,0,-2.4859,-2.4859,0,-2.4894,-2.4894,-2.4894,-2.4846,-2.4845,-2.4843,-2.4841,-2.4878,-2.4881,-2.4883,0,0,0,0,0,0,0,0,0,0,0,0,0,-2.4754,-2.4756,-2.4859,-2.4859,-2.486,-2.4894,-2.4894,-2.4894,-2.4847,-2.4845,-2.4842,-2.484,-2.4877,-2.4881,-2.4884,0,0,0,0,0,0,0,0,0,0,0,0,0,-2.4795,-2.4757,-2.4859,-2.484,-2.4838,-2.4893,-2.4894,-2.4895,-2.4847,-2.4844,-2.4842,-2.4839,-2.4876,-2.488,-2.4884,-2.496,0,0,-2.4896,-2.4898,0,0,0,0,0,0,0,0,-2.4793,-2.4799,-2.4842,-2.4841,-2.484,-2.4863,-2.4871,-2.4916,-2.4848,-2.4844,-2.4841,-2.4838,-2.4875,-2.4879,-2.4891,-2.4961,-2.4963,-2.4896,-2.4899,-2.49,-2.4901,0,0,0,0,0,0,0,-2.479,-2.4797,-2.4873,-2.4843,-2.4841,-2.4831,-2.4834,-2.4879,-2.4874,-2.4844,-2.4841,-2.4845,-2.4874,-2.4888,-2.4892,-2.4963,-2.4896,-2.49,-2.4902,-2.4904,-2.5099,-2.5102,0,0,0,0,0,0,-2.4789,-2.4795,-2.4871,-2.4874,-2.481,-2.4835,-2.4838,-2.4858,-2.4873,-2.4873,-2.4847,-2.4843,-2.4882,-2.4887,-2.4893,-2.4983,-2.49,-2.4904,-2.4906,-2.5096,-2.51,-2.5103,0,0,0,0,0,0,-2.4787,-2.4797,-2.487,-2.4834,-2.4842,-2.4839,-2.4862,-2.486,-2.4873,-2.4876,-2.4875,-2.4862,-2.4881,-2.4888,-2.4944,-2.4983,-2.4906,-2.4909,-2.5093,-2.5097,-2.5101,-2.5163,0,0,0,0,0,0,-2.4784,-2.4796,-2.4824,-2.4835,-2.4844,-2.4919,-2.4865,-2.4863,-2.488,-2.4875,-2.4889,-2.4889,-2.4879,-2.4938,-2.4948,-2.4987,-2.4912,-2.5089,-2.5095,-2.51,-2.5157,-2.5169,-2.5178,0,0,0,0,0,-2.4781,-2.484,-2.4825,-2.4835,-2.4879,-2.4922,-2.4927,-2.4914,-2.4884,-2.4912,-2.4914,-2.4889,-2.4978,-2.4944,-2.4954,-2.4996,-2.5087,-2.5093,-2.5099,-2.5152,-2.5166,-2.5178,0,0,0,0,0,0,-2.4833,-2.4841,-2.4825,-2.4889,-2.4905,-2.4913,-2.4948,-2.4929,-2.4955,-2.4948,-2.4932,-2.4936,-2.4996,-2.5002,-2.4964,-2.5071,-2.5027,-2.5036,-2.5064,-2.5077,-2.5088,-2.5084,-2.4915,0,0,0,0,0,-2.4853,-2.4886,-2.4891,-2.4947,-2.4956,-2.4951,-2.4969,-2.4958,-2.4974,-2.4981,-2.4987,-2.5004,-2.5036,-2.5057,-2.5087,-2.5159,-2.5162,-2.5193,-2.5203,-2.5212,-2.5219,-2.5259,-2.5273,-2.5124,-2.5124,-2.5124,0,0,-2.4892,-2.49,-2.4922,-2.4958,-2.4969,-2.5005,-2.4957,-2.4996,-2.5023,-2.4987,-2.504,-2.5046,-2.5064,-2.5128,-2.5157,-2.5135,-2.5262,-2.522,-2.5227,-2.523,-2.5267,-2.5281,-2.5293,-2.5128,-2.5128,-2.5127,0,0,-2.4982,-2.4992,-2.5039,-2.5052,-2.507,-2.5067,-2.5079,-2.5091,-2.5093,-2.5146,-2.512,-2.5152,-2.5208,-2.5222,-2.5237,-2.5336,-2.5314,-2.5347,-2.5401,-2.544,-2.5452,-2.5462,-2.5497,-2.551,-2.5354,-2.5354,-2.5354,0,-2.5028,-2.508,-2.5066,-2.5108,-2.5125,-2.5095,-2.5144,-2.5157,-2.5184,-2.5197,-2.5173,-2.5243,-2.5253,-2.5321,-2.5345,-2.5359,-2.5372,-2.5343,-2.5451,-2.5461,-2.5471,-2.5504,-2.5517,-2.5358,-2.5358,-2.5357,-2.5357,0,-2.5137,-2.5174,-2.5211,-2.5237,-2.5259,-2.5304,-2.5298,-2.5322,-2.531,-2.531,-2.5366,-2.5378,-2.541,-2.5426,-2.5414,-2.5493,-2.5479,-2.5453,-2.5409,-2.5489,-2.552,-2.5533,-2.5363,-2.5362,-2.5361,-2.536,0,0,-2.5258,-2.5278,-2.5292,-2.5304,-2.5323,-2.5351,-2.5397,-2.5428,-2.5449,-2.547,-2.5507,-2.5557,-2.5534,-2.555,-2.5541,-2.5575,-2.5654,-2.5546,-2.5546,-2.5565,-2.5741,-2.5759,-2.5774,-2.564,-2.5643,-2.5645,-2.5739,0,-2.5347,-2.5423,-2.5414,-2.5487,-2.5522,-2.5496,-2.5535,-2.5552,-2.5554,-2.5585,-2.5588,-2.5623,-2.559,-2.56,-2.5633,-2.5637,-2.5688,-2.563,-2.5675,-2.5677,-2.567,-2.579,-2.5809,-2.5898,-2.5752,-2.5754,-2.5755,0,-2.546,-2.5485,-2.5562,-2.5577,-2.5591,-2.5627,-2.5655,-2.5685,-2.5705,-2.5704,-2.5725,-2.571,-2.5757,-2.5714,-2.5779,-2.5739,-2.5758,-2.5763,-2.5766,-2.5769,-2.5719,-2.5795,-2.5926,-2.5939,-2.5774,-2.5773,-2.5771,0,-2.554,-2.5593,-2.5646,-2.5657,-2.5676,-2.5702,-2.5712,-2.5728,-2.5749,-2.5775,-2.5788,-2.582,-2.5837,-2.5862,-2.5857,-2.5826,-2.5924,-2.588,-2.5925,-2.5925,-2.5945,-2.5943,-2.6079,-2.596,-2.5959,-2.5959,-2.5959,0,-2.5639,-2.5687,-2.5682,-2.5714,-2.5768,-2.5758,-2.5812,-2.5818,-2.5834,-2.5869,-2.5849,-2.5882,-2.5874,-2.5908,-2.5905,-2.5959,-2.5967,-2.5969,-2.5967,-2.597,-2.5969,-2.598,-2.5973,-2.5963,-2.5962,-2.5961,-2.5961,0,-2.5735,-2.5734,-2.579,-2.5804,-2.5809,-2.5848,-2.5861,-2.5893,-2.5895,-2.5939,-2.5948,-2.5952,-2.599,-2.5989,-2.6032,-2.6031,-2.6098,-2.6089,-2.6091,-2.6088,-2.6133,-2.6129,-2.628,-2.6299,-2.6168,-2.6169,-2.617,0,-2.5798,-2.5834,-2.5853,-2.5874,-2.5885,-2.592,-2.5941,-2.5934,-2.5956,-2.5983,-2.6012,-2.6048,-2.6077,-2.614,-2.6147,-2.6181,-2.6173,-2.6224,-2.6178,-2.618,-2.6173,-2.617,-2.6174,-2.6232,-2.6234,-2.6235,-2.6236,0,-2.5909,-2.5907,-2.5937,-2.5968,-2.5993,-2.6017,-2.6039,-2.6058,-2.6053,-2.608,-2.6119,-2.6142,-2.6187,-2.6224,-2.6257,-2.6268,-2.6252,-2.6251,-2.6263,-2.6265,-2.6264,-2.6264,-2.6114,-2.6247,-2.6246,-2.6245,-2.6244,-2.6244,-2.599,-2.6021,-2.6039,-2.6074,-2.609,-2.6112,-2.6142,-2.6149,-2.6181,-2.6217,-2.6211,-2.6255,-2.6277,-2.6319,-2.6334,-2.6369,-2.6351,-2.6369,-2.6373,-2.6377,-2.6382,-2.626,-2.6376,-2.6375,-2.6375,-2.6375,-2.6375,0,-2.6099,-2.611,-2.6142,-2.6174,-2.6202,-2.6184,-2.6209,-2.6233,-2.6272,-2.6293,-2.6322,-2.6368,-2.6405,-2.6416,-2.6452,-2.6478,-2.6472,-2.6488,-2.6485,-2.6488,-2.6396,-2.6382,-2.6493,-2.6493,-2.6493,-2.6493,-2.6493,-2.6493,-2.6159,-2.6211,-2.6212,-2.6274,-2.6285,-2.6327,-2.6342,-2.6363,-2.638,-2.6432,-2.6462,-2.6469,-2.6487,-2.6524,-2.6558,-2.6561,-2.6574,-2.6594,-2.6593,-2.6506,-2.6495,-2.6483,-2.6469,-2.6597,-2.6597,-2.6682,-2.6683,-2.6683]},{"header":{"parameterUnit":"m.s-1","parameterCategory":1,"la1":30.2991,"la2":30.254,"lo1":-89.0895,"lo2":-89.0444,"dy":0.0017,"dx":0.0017,"nx":28,"ny":28,"refTime":"2023-10-27T09:00:00:Z","depth":0,"parameterNumber":3,"parameterNumberName":"V-component_of_WINDS"},"data":[0,0,0,0,0,0,0,0,0,0,0,0,0,0,0,0,0,0,0,0,0,0,0,0,0,0,0,0,0,0,0,0,0,0,0,0,0,0,0,0,0,0,0,0,0,0,0,0,0,0,0,0,0,0,0,0,0,0,1.5473,1.5473,0,1.5542,1.5543,1.5544,1.5578,1.5578,1.5578,1.5578,1.5645,1.5646,1.5648,0,0,0,0,0,0,0,0,0,0,0,0,0,1.5366,1.5368,1.5472,1.5473,1.5474,1.5542,1.5543,1.5544,1.5578,1.5578,1.5578,1.5578,1.5644,1.5646,1.5648,0,0,0,0,0,0,0,0,0,0,0,0,0,1.5421,1.5368,1.5472,1.5499,1.5503,1.5542,1.5543,1.5544,1.5578,1.5578,1.5578,1.5578,1.5643,1.5646,1.5649,1.5665,0,0,1.5657,1.5658,0,0,0,0,0,0,0,0,1.5418,1.5425,1.5495,1.5498,1.5501,1.5552,1.553,1.5585,1.5578,1.5549,1.5578,1.5578,1.5613,1.5619,1.5631,1.5668,1.5671,1.5657,1.5659,1.566,1.5661,0,0,0,0,0,0,0,1.5414,1.5422,1.55,1.5496,1.55,1.5507,1.5515,1.5541,1.558,1.5552,1.5554,1.5562,1.5615,1.5629,1.5633,1.5672,1.5657,1.5659,1.5661,1.5662,1.5727,1.5728,0,0,0,0,0,0,1.5407,1.5419,1.5498,1.5502,1.5459,1.5509,1.5518,1.5535,1.558,1.5587,1.5562,1.5564,1.5624,1.563,1.5636,1.5659,1.566,1.5662,1.5664,1.5727,1.5727,1.5728,0,0,0,0,0,0,1.5404,1.5413,1.5495,1.5461,1.5472,1.5511,1.553,1.5537,1.555,1.5588,1.5595,1.5569,1.5625,1.5632,1.5658,1.5662,1.5663,1.5666,1.5727,1.5727,1.5728,1.5705,0,0,0,0,0,0,1.5401,1.5412,1.5419,1.5461,1.5474,1.5517,1.553,1.5538,1.5555,1.5558,1.5596,1.5603,1.5625,1.5654,1.5661,1.5666,1.5668,1.5727,1.5727,1.5727,1.5705,1.5704,1.5703,0,0,0,0,0,1.5397,1.5409,1.5419,1.5429,1.5484,1.5517,1.5524,1.5551,1.5556,1.5563,1.5587,1.5601,1.566,1.5656,1.5664,1.567,1.5727,1.5727,1.5727,1.5706,1.5705,1.5703,0,0,0,0,0,0,1.5364,1.5415,1.5427,1.5453,1.5481,1.5523,1.5532,1.5548,1.5574,1.5575,1.5606,1.5614,1.5638,1.5657,1.5651,1.5689,1.5695,1.5697,1.5676,1.5675,1.5674,1.5669,1.567,0,0,0,0,0,1.536,1.5384,1.5426,1.5445,1.5459,1.5493,1.5508,1.5527,1.5556,1.5568,1.5594,1.5621,1.5646,1.5662,1.5686,1.5709,1.5718,1.5716,1.5715,1.5714,1.5715,1.573,1.573,1.5729,1.5729,1.5729,0,0,1.5351,1.5382,1.5394,1.5439,1.5463,1.5486,1.5503,1.5526,1.5544,1.5571,1.5598,1.5619,1.5651,1.5676,1.5688,1.5692,1.5718,1.5715,1.5714,1.5715,1.573,1.5731,1.5731,1.5729,1.5729,1.5729,0,0,1.5347,1.5373,1.5392,1.5416,1.5453,1.5476,1.5481,1.5521,1.5537,1.5565,1.5587,1.5607,1.5649,1.5672,1.5689,1.5696,1.5711,1.5703,1.5697,1.5711,1.5712,1.5712,1.5715,1.5716,1.5704,1.5704,1.5704,0,1.5331,1.5369,1.5399,1.5423,1.5442,1.547,1.549,1.5511,1.5553,1.5566,1.557,1.5625,1.5648,1.5679,1.5682,1.5694,1.57,1.5699,1.5709,1.571,1.5711,1.5714,1.5715,1.5703,1.5703,1.5704,1.5704,0,1.5348,1.5373,1.5384,1.5427,1.5447,1.5468,1.5502,1.5519,1.5536,1.5559,1.5588,1.5618,1.565,1.5659,1.5675,1.5693,1.5694,1.5704,1.571,1.5709,1.5713,1.5715,1.5702,1.5702,1.5703,1.5703,0,0,1.5323,1.5385,1.5388,1.5409,1.5452,1.5472,1.5495,1.5529,1.5543,1.5571,1.5591,1.5627,1.5637,1.5656,1.5675,1.5688,1.5693,1.5696,1.5697,1.5695,1.5716,1.5709,1.571,1.5703,1.5704,1.5704,1.5714,0,1.5326,1.537,1.5399,1.5431,1.5456,1.5484,1.5504,1.5532,1.5555,1.5578,1.5603,1.5628,1.5639,1.5651,1.5664,1.569,1.5698,1.5689,1.5722,1.5723,1.5713,1.5712,1.5705,1.5712,1.5716,1.5716,1.5716,0,1.5334,1.5365,1.54,1.5443,1.5454,1.5472,1.5506,1.5528,1.5562,1.5577,1.56,1.562,1.5646,1.5651,1.5686,1.568,1.5695,1.571,1.5711,1.5714,1.5719,1.5717,1.5715,1.5717,1.5719,1.5718,1.5718,0,1.5314,1.5363,1.5391,1.5408,1.5459,1.5471,1.5492,1.5526,1.5545,1.5574,1.5587,1.5618,1.5635,1.5659,1.5687,1.5688,1.572,1.5727,1.5733,1.5732,1.5738,1.5737,1.5739,1.5747,1.5747,1.5747,1.5747,0,1.5314,1.5334,1.5383,1.54,1.5424,1.5458,1.5481,1.5504,1.5534,1.5556,1.5582,1.5602,1.5638,1.5662,1.5684,1.5711,1.5718,1.5731,1.5736,1.5729,1.5727,1.5739,1.5739,1.5748,1.5747,1.5747,1.5747,0,1.5295,1.5328,1.5361,1.5408,1.542,1.5435,1.5475,1.5492,1.5517,1.5545,1.5553,1.5591,1.5621,1.5652,1.5692,1.5707,1.5733,1.5741,1.5722,1.5726,1.5731,1.573,1.574,1.5744,1.5749,1.5749,1.5749,0,1.5293,1.531,1.5359,1.5376,1.5398,1.5425,1.5446,1.548,1.55,1.554,1.5553,1.5586,1.5613,1.566,1.5691,1.5722,1.5731,1.5732,1.5735,1.5728,1.5732,1.573,1.5733,1.5731,1.5731,1.5731,1.573,0,1.5285,1.5302,1.5331,1.5367,1.5391,1.542,1.545,1.5462,1.5502,1.5523,1.5556,1.5577,1.562,1.5652,1.5687,1.5708,1.5726,1.573,1.5733,1.5725,1.5714,1.5721,1.572,1.5729,1.5729,1.5729,1.5729,1.5729,1.5275,1.5292,1.5331,1.5363,1.5389,1.5417,1.5437,1.5465,1.5493,1.5532,1.555,1.5582,1.5617,1.5667,1.5688,1.5713,1.5718,1.5722,1.5724,1.5724,1.5723,1.571,1.572,1.572,1.572,1.572,1.572,0,1.527,1.5297,1.5326,1.5369,1.5394,1.5411,1.5445,1.5465,1.5494,1.5525,1.5553,1.5591,1.5623,1.5657,1.5691,1.5705,1.5714,1.5713,1.5712,1.5717,1.5716,1.571,1.5705,1.5705,1.5705,1.5705,1.5705,1.5705,1.5271,1.5301,1.5322,1.5366,1.5393,1.5426,1.5445,1.5471,1.5496,1.5538,1.5565,1.5588,1.5621,1.5658,1.5688,1.5698,1.5709,1.5705,1.5717,1.5715,1.5717,1.5718,1.5712,1.5707,1.5707,1.5715,1.5716,1.5716]}]]